BOX717 EDDF-LIMC

Flight info

Callsign BOX717
Flight time N/A
Altitude 31000
Route ANEKI2L/18 ANEKI Y163 PABLA/N0479F330 Y163 NATOR DCT DITON DCT BASGO Z424 RIXUV
Aircraft B77L/H-SDE1E2E3FGHIJ2J3J4J5M1RWXY/LB1D1

Departure

Time 2026-05-05 19:53
Airport Frankfurt Main Airport (EDDF)

Arrival

Time N/A
Airport Milan Malpensa International Airport (LIMC)
Time Latitude Longitude Altitude Speed Heading
2026-05-05 19:10 50.03735 8.52775 347 ft 0 kts 339°
2026-05-05 19:38 50.03724 8.52782 348 ft 4 kts 339°
2026-05-05 19:39 50.03698 8.52797 347 ft 4 kts 338°
2026-05-05 19:39 50.03676 8.52811 347 ft 2 kts 338°
2026-05-05 19:39 50.03653 8.52820 346 ft 4 kts 11°
2026-05-05 19:39 50.03634 8.52801 348 ft 4 kts 68°
2026-05-05 19:40 50.03626 8.52761 352 ft 4 kts 73°
2026-05-05 19:40 50.03618 8.52724 349 ft 4 kts 70°
2026-05-05 19:40 50.03609 8.52685 351 ft 4 kts 69°
2026-05-05 19:40 50.03600 8.52645 356 ft 4 kts 69°
2026-05-05 19:41 50.03597 8.52635 356 ft 1 kts 69°
2026-05-05 19:44 50.03599 8.52642 345 ft 3 kts 69°
2026-05-05 19:44 50.03608 8.52681 355 ft 4 kts 69°
2026-05-05 19:44 50.03613 8.52701 354 ft 1 kts 69°
2026-05-05 19:44 50.03615 8.52712 354 ft 1 kts 69°
2026-05-05 19:45 50.03618 8.52723 350 ft 1 kts 69°
2026-05-05 19:45 50.03621 8.52733 351 ft 1 kts 69°
2026-05-05 19:45 50.03621 8.52734 351 ft 0 kts 69°
2026-05-05 19:46 50.03627 8.52740 353 ft 2 kts 34°
2026-05-05 19:47 50.03641 8.52719 357 ft 4 kts 278°
2026-05-05 19:47 50.03614 8.52647 356 ft 13 kts 240°
2026-05-05 19:47 50.03592 8.52501 354 ft 14 kts 265°
2026-05-05 19:47 50.03568 8.52382 355 ft 10 kts 250°
2026-05-05 19:48 50.03555 8.52324 348 ft 3 kts 255°
2026-05-05 19:48 50.03547 8.52312 355 ft 2 kts 208°
2026-05-05 19:48 50.03531 8.52310 347 ft 4 kts 184°
2026-05-05 19:48 50.03474 8.52305 347 ft 11 kts 182°
2026-05-05 19:49 50.03410 8.52301 337 ft 0 kts 182°
2026-05-05 19:49 50.03404 8.52303 338 ft 2 kts 167°
2026-05-05 19:49 50.03399 8.52321 335 ft 2 kts 99°
2026-05-05 19:49 50.03399 8.52343 337 ft 2 kts 91°
2026-05-05 19:50 50.03398 8.52390 336 ft 9 kts 91°
2026-05-05 19:50 50.03397 8.52443 336 ft 0 kts 90°
2026-05-05 19:51 50.03397 8.52452 336 ft 3 kts 90°
2026-05-05 19:51 50.03396 8.52524 337 ft 7 kts 97°
2026-05-05 19:51 50.03363 8.52581 337 ft 8 kts 158°
2026-05-05 19:52 50.03310 8.52593 337 ft 8 kts 178°
2026-05-05 19:52 50.03302 8.52593 336 ft 0 kts 178°
2026-05-05 19:52 50.03204 8.52596 340 ft 35 kts 180°
2026-05-05 19:52 50.02703 8.52601 336 ft 107 kts 180°
2026-05-05 19:53 50.01743 8.52610 335 ft 166 kts 180°
2026-05-05 19:53 50.00468 8.52617 503 ft 193 kts 180°
2026-05-05 19:53 49.99164 8.52618 1292 ft 184 kts 180°
2026-05-05 19:53 49.97891 8.52762 1983 ft 185 kts 176°
2026-05-05 19:54 49.96574 8.52944 2358 ft 200 kts 180°
2026-05-05 19:54 49.95095 8.53015 2554 ft 226 kts 180°
2026-05-05 19:54 49.93439 8.53089 2867 ft 247 kts 180°
2026-05-05 19:54 49.91686 8.53186 3560 ft 255 kts 180°
2026-05-05 19:55 49.89922 8.53297 4232 ft 256 kts 180°
2026-05-05 19:55 49.88128 8.53417 4991 ft 261 kts 180°
2026-05-05 19:55 49.86299 8.53546 5794 ft 263 kts 180°
2026-05-05 19:55 49.84448 8.53681 6547 ft 267 kts 179°
2026-05-05 19:56 49.82577 8.53819 7301 ft 270 kts 179°
2026-05-05 19:56 49.80687 8.53959 8056 ft 273 kts 179°
2026-05-05 19:56 49.78797 8.54100 8793 ft 276 kts 179°
2026-05-05 19:56 49.76869 8.54123 9532 ft 278 kts 185°
2026-05-05 19:57 49.74922 8.53886 10175 ft 285 kts 187°
2026-05-05 19:57 49.72875 8.53572 10398 ft 308 kts 187°
2026-05-05 19:57 49.70659 8.53229 10601 ft 332 kts 187°
2026-05-05 19:57 49.68274 8.52872 10820 ft 355 kts 187°
2026-05-05 19:58 49.65783 8.52516 11403 ft 366 kts 186°
2026-05-05 19:58 49.63204 8.52163 12275 ft 371 kts 187°
2026-05-05 19:58 49.60624 8.51815 13223 ft 374 kts 187°
2026-05-05 19:58 49.58032 8.51468 14040 ft 379 kts 187°
2026-05-05 19:59 49.55395 8.51118 14786 ft 385 kts 186°
2026-05-05 19:59 49.52700 8.50762 15546 ft 390 kts 186°
2026-05-05 19:59 49.49972 8.50402 16293 ft 395 kts 186°
2026-05-05 19:59 49.47251 8.50043 17053 ft 400 kts 186°
2026-05-05 20:00 49.44452 8.49675 17797 ft 405 kts 186°
2026-05-05 20:00 49.41630 8.49304 18556 ft 407 kts 186°
2026-05-05 20:00 49.38819 8.48935 19328 ft 408 kts 185°
2026-05-05 20:00 49.35970 8.48560 19985 ft 412 kts 185°
2026-05-05 20:01 49.33072 8.48180 20605 ft 417 kts 185°
2026-05-05 20:01 49.30167 8.47800 21218 ft 422 kts 185°
2026-05-05 20:01 49.27238 8.47423 21865 ft 425 kts 185°
2026-05-05 20:01 49.24303 8.47052 22513 ft 429 kts 185°
2026-05-05 20:02 49.21304 8.46675 23134 ft 433 kts 184°
2026-05-05 20:02 49.18306 8.46298 23828 ft 432 kts 184°
2026-05-05 20:02 49.15380 8.45930 24861 ft 421 kts 184°
2026-05-05 20:02 49.12495 8.45566 25950 ft 410 kts 184°
2026-05-05 20:03 49.09570 8.45198 27114 ft 398 kts 184°
2026-05-05 20:03 49.06974 8.44846 28167 ft 387 kts 186°
2026-05-05 20:03 49.04345 8.44163 29121 ft 381 kts 192°
2026-05-05 20:03 49.01750 8.43234 29712 ft 384 kts 192°
2026-05-05 20:04 48.99129 8.42291 30082 ft 389 kts 193°
2026-05-05 20:04 48.96514 8.41357 30542 ft 390 kts 193°
2026-05-05 20:04 48.93855 8.40416 30860 ft 394 kts 192°
2026-05-05 20:05 48.88517 8.38546 30827 ft 392 kts 192°
2026-05-05 20:05 48.83202 8.36696 30836 ft 391 kts 192°
2026-05-05 20:06 48.77910 8.34853 30839 ft 392 kts 193°
2026-05-05 20:06 48.72593 8.32922 30836 ft 392 kts 194°
2026-05-05 20:07 48.67288 8.30982 30833 ft 391 kts 194°
2026-05-05 20:07 48.61994 8.29059 30833 ft 390 kts 194°
2026-05-05 20:08 48.56759 8.27164 30835 ft 389 kts 194°
2026-05-05 20:08 48.51478 8.25365 30849 ft 388 kts 188°
2026-05-05 20:09 48.46091 8.25140 30855 ft 388 kts 176°
2026-05-05 20:09 48.40719 8.26342 30867 ft 389 kts 172°
2026-05-05 20:10 48.35350 8.27689 30856 ft 390 kts 172°
2026-05-05 20:10 48.30009 8.28991 30863 ft 391 kts 173°
2026-05-05 20:11 48.24629 8.30279 30866 ft 392 kts 173°
2026-05-05 20:11 48.19234 8.31566 30869 ft 392 kts 173°
2026-05-05 20:12 48.13810 8.32218 30878 ft 390 kts 181°
2026-05-05 20:12 48.08338 8.32255 30880 ft 391 kts 182°
2026-05-05 20:13 48.02895 8.32307 30885 ft 391 kts 182°
2026-05-05 20:13 47.97452 8.32374 30875 ft 391 kts 182°
2026-05-05 20:14 47.92015 8.32449 30888 ft 390 kts 182°
2026-05-05 20:14 47.86628 8.32524 30884 ft 389 kts 182°
2026-05-05 20:15 47.81231 8.32599 30894 ft 388 kts 182°
2026-05-05 20:15 47.75839 8.32674 30888 ft 386 kts 182°
2026-05-05 20:16 47.70512 8.32748 30893 ft 385 kts 182°
2026-05-05 20:16 47.65149 8.32821 30898 ft 385 kts 182°
2026-05-05 20:17 47.59912 8.32893 30892 ft 385 kts 182°
2026-05-05 20:17 47.54582 8.32967 30894 ft 385 kts 182°